Miscellaneous Local Product
Issued by NWS North Platte, NE

Home | Current Version | Previous Version | Text Only | Print | Product List | Glossary On
Versions: 1 2 3 4 5 6 7 8 9 10 11 12 13 14 15 16 17 18 19 20 21 22 23 24 25 26 27 28 29 30 31 32 33 34 35 36 37 38 39 40 41 42 43 44 45 46 47 48 49 50
000
AXUS43 KLBF 251810
MISLBF


WESTERN AND NORTH CENTRAL NEBRASKA HOURLY WEATHER ROUNDUP
NATIONAL WEATHER SERVICE NORTH PLATTE NE
100 PM CDT SAT MAR 25 2017

NOTE: "FAIR" INDICATES FEW OR NO CLOUDS BELOW 12,000 FEET WITH NO
SIGNIFICANT WEATHER AND/OR OBSTRUCTIONS TO VISIBILITY.

NOTE: STATIONS NOT REPORTING VARIABLES SUCH AS SKY/WEATHER OR
PRESSURE ARE PROVIDED BY RAWS AND APRS NETWORKS AND ARE NOT UNDER
NATIONAL WEATHER SERVICE QUALITY CONTROL.

...OBSERVATIONS IN AND NEAR THE EASTERN PANHANDLE OF NEBRASKA...

CITY           SKY/WX    TMP DP  RH WIND       PRES   REMARKS
PINE RIDGE     FAIR      64  31  28 S17       29.92F
CHADRON        FAIR      65  31  28 SW13      29.91F
ALLIANCE       FAIR      60  30  32 SW16      29.96F
SIDNEY         FAIR      57  30  35 SW12      30.00F
CRESCENT LAKE    N/A     57  27  31 S8          N/A
$$

...OBSERVATIONS IN NORTHERN NEBRASKA AND FAR SOUTHERN SOUTH DAKOTA...

CITY           SKY/WX    TMP DP  RH WIND       PRES   REMARKS
WINNER         FAIR      50  35  56 VRB3      30.03F
VALENTINE      FAIR      56  20  24 SE7       30.00F
THEDFORD       FAIR      56  24  28 CALM      30.01F
AINSWORTH      FAIR      46  37  70 E6        30.01F
O`NEILL        FOG       37  37  99 N7        30.04F VSB 1   WCI  31
ORD            CLOUDY    39  36  89 N10       30.00F WCI  32
BROKEN BOW     CLOUDY    43  39  86 NE8       30.01F
VALENTINE NWR    N/A     53  28  37 S6          N/A
HALSEY           N/A     50  35  57 CALM        N/A
BUTTE            N/A     35  33  92 E8          N/A  WCI  28
CHAMBERS         N/A     41  38  87 CALM        N/A
EWING            N/A     37  37 100 MISG        N/A
$$

...OBSERVATIONS IN SOUTHWEST NEBRASKA AND FAR NORTHEAST COLORADO...

CITY           SKY/WX    TMP DP  RH WIND       PRES   REMARKS
HOLYOKE        FAIR      59  34  38 S5        30.01F
IMPERIAL       FAIR      54  29  38 N5        30.02F
OGALLALA       FAIR      55  26  32 W3        30.01F
NORTH PLATTE   FAIR      55  32  41 W5        30.00F
MCCOOK         FAIR      55  36  48 NW9       30.00F
LEXINGTON      CLOUDY    45  40  82 NE8       30.01F
STAPLETON        N/A     53  32  45 CALM        N/A
GOTHENBURG       N/A     46  37  70 NW7         N/A
CALLAWAY         N/A     45  42  88 N5          N/A
$$

...OBSERVATIONS IN CENTRAL LINCOLN COUNTY AREA...

CITY           SKY/WX    TMP DP  RH WIND       PRES   REMARKS
N.P. AIRPORT   FAIR      55  32  41 W5        30.00F
N.P. DOWNTOWN    N/A     53  30  42 W3          N/A
N.P. SOUTHEAST   N/A     55  31  39 CALM        N/A
N.P. HILLCREST   N/A     54  33  44 W3          N/A
$$

...SOME OBSERVATIONS FROM AROUND THE REGION...

CITY           SKY/WX    TMP DP  RH WIND       PRES   REMARKS
DENVER         PTSUNNY   58  25  28 S12       29.99F
LIMON          FAIR      55  33  43 VRB6      30.02F
ASPEN          FAIR      49  21  33 N7        30.03F
LARAMIE        FAIR      50  17  27 SW13      30.00F
GILLETTE       FAIR      57  33  40 N13       29.94F
CHEYENNE       FAIR      54  26  34 SW13      30.00F
SCOTTSBLUFF    FAIR      61  34  36 S8        29.95F
GRAND ISLAND   CLOUDY    38  38 100 N13       30.00F WCI  30
OMAHA          CLOUDY    43  38  82 N14       29.96F
SIOUX FALLS    CLOUDY    41  37  86 E13       30.07F
PIERRE         FAIR      41  33  73 S10       30.02F
RAPID CITY     FAIR      61  33  35 SE10      29.90F
BISMARCK       CLOUDY    39  33  79 SE14      30.03F WCI  31
KANSAS CITY    CLOUDY    51  50  96 N15       29.84F
HILL CITY      CLOUDY    46  39  76 N9        30.02F
WICHITA        CLOUDY    44  40  85 NW16G23   29.96R
DODGE CITY     FAIR      57  38  48 NW23G31   29.98F
OKLAHOMA CITY  CLOUDY    52  42  69 NW16      30.00F
DALLAS         FAIR      66  46  48 W14       30.02S
AMARILLO       FAIR      61  29  29 NW14      30.06F
$$




USA.gov is the U.S. government's official web portal to all federal, state and local government web resources and services.